{"data":{"norad_id":66032,"intl_designator":"2025-232AD","name":"STARLINK-35311","alt_names":[],"object_type":"PAYLOAD","status":"ACTIVE","operator":null,"country":"US","launch_date":"2025-10-16","launch_site_code":"AFETR","launch_vehicle":null,"mission":null,"orbit_class":"UNKNOWN","rcs_meters":null,"size_class":null,"mass_kg":null,"dimensions":null,"purposes":["comms"],"wikipedia_slug":null,"has_3d_model":false,"image_url":null,"decayed_at":null,"tle_current":{"epoch":"2026-09-20T05:52:44.493024Z","epoch_age_seconds":125057,"freshness":"FRESH","line1":"1 66032U 25232AD  26263.24495941  .00006225  00000+0  19525-3 0  9997","line2":"2 66032  53.1591 276.6024 0001302  77.4491 282.6658 15.34394627 53276","mean_motion":15.34394627,"eccentricity":0.0001302,"inclination_deg":53.1591,"raan_deg":276.6024,"arg_perigee_deg":77.4491,"mean_anomaly_deg":282.6658,"bstar":0.00019525,"rev_number":5327,"period_min":93.848086708661,"perigee_km":461.82853046348,"apogee_km":463.60988942055,"semimajor_km":6840.856209942,"source":"CELESTRAK","updated_at":"2026-09-21T09:00:35.773815Z"}}}